Regional Weather Roundup
Issued by NWS

Home | Current Version | Previous Version | Text Only | Print | Product List | Glossary On
Versions: 1 2 3 4 5 6 7 8 9 10 11 12 13 14 15 16 17 18 19 20 21 22 23 24 25 26 27 28 29 30 31 32 33 34 35 36 37 38 39 40 41 42 43 44 45 46 47 48 49 50
000
ASUS44 KBMX 300510
RWRAL

ALABAMA REGIONAL WEATHER ROUNDUP
NATIONAL WEATHER SERVICE BIRMINGHAM AL
1200 AM CDT TUE JUN 30 2015

NOTE: "FAIR" INDICATES FEW OR NO CLOUDS BELOW 12,000 FEET
WITH NO SIGNIFICANT WEATHER AND/OR OBSTRUCTIONS TO VISIBILITY.

THE REMARK "TC" DENOTES TEMPERATURE IN DEGREES CELSIUS.

ALZ001>011-014-016>018-020-300600-
NORTH ALABAMA

CITY           SKY/WX    TMP DP  RH WIND       PRES   REMARKS
MUSCLE SHOALS  CLEAR     77  68  73 S5        29.94S
HUNTSVILLE     PTCLDY    73  66  78 SE5       29.96R
DECATUR        CLEAR     70  66  87 SE7       29.96R
HALEYVILLE     FAIR      73  69  87 CALM      29.99S
GADSDEN        MOCLDY   N/A N/A N/A CALM      29.97R
$$

ALZ012-013-022-023-030>036-040>044-300600-
WEST CENTRAL ALABAMA

CITY           SKY/WX    TMP DP  RH WIND       PRES   REMARKS
TUSCALOOSA     MOCLDY    77  71  82 S7        29.97R
$$

ALZ015-024>027-033>036-040>044-300600-
CENTRAL ALABAMA

CITY           SKY/WX    TMP DP  RH WIND       PRES   REMARKS
BIRMINGHAM     MOCLDY    79  70  74 S10       29.99R
MONTGOMERY     CLEAR     76  71  85 S6        30.00S
SHELBY CO ARPT MOCLDY    76  72  87 S7        29.99R
MAXWELL AFB    CLEAR     76  72  87 SW5       29.99S
GREENVILLE     FAIR      74  69  85 S5        30.02
$$

ALZ019-021-028-029-037-038-045>048-300600-
EAST CENTRAL ALABAMA

CITY           SKY/WX    TMP DP  RH WIND       PRES   REMARKS
ANNISTON       PTCLDY    73  65  75 NE3       29.99R
ALEXANDER CITY CLEAR     74  69  82 SW6       30.01S
AUBURN         CLEAR     72  64  78 SW6       30.03F
$$

ALZ051>064-300600-
SOUTHWEST ALABAMA

CITY           SKY/WX    TMP DP  RH WIND       PRES   REMARKS
MOBILE         PTCLDY    76  72  87 S7        30.04S
BROOKLEY FIELD PTCLDY    77  72  84 CALM      30.05R
EVERGREEN      CLEAR     72  70  93 CALM      30.02F
$$

ALZ049-050-065>069-300600-
SOUTHEAST ALABAMA

CITY           SKY/WX    TMP DP  RH WIND       PRES   REMARKS
DOTHAN         CLEAR     76  73  91 SW7       30.07S
OZARK          CLEAR     75  72  91 S3        30.03S
TROY           CLEAR     75  72  90 S6        30.03R
EUFAULA        FAIR      72  69  90 CALM      30.01S
$$



USA.gov is the U.S. government's official web portal to all federal, state and local government web resources and services.